sat.trackr.live / text

‹ back to catalog

STARLINK-31629

NORAD 59255 · 2024-050B

PAYLOAD ACTIVE UNKNOWN

§ Identity

Operator
Country
US
Launch date
2024-03-19
Launch site
AFWTR
Launch vehicle
Mass (kg)
RCS (m²)

Purposes: comms

External: N2YO · Heavens-Above · Gunter

§ Orbital elements

Epoch: 2026-05-25T03:28:20.078976Z

Period
94.11 min
Inclination
53.1600°
Eccentricity
0.0001179
Mean motion
15.30185555 rev/d
Perigee alt
474.5 km
Apogee alt
476.1 km
Semi-major
6,853.4 km
B*
9.9788e-6
RAAN
185.9080°
Arg perigee
82.7983°
Mean anomaly
277.3152°
Rev number
12,225

§ Raw data

STARLINK-316291 59255U 24050B   26145.14467684 -.00000064  00000+0  99788-5 0  99912 59255  53.1600 185.9080 0001179  82.7983 277.3152 15.30185555122256

JSON: /api/v1/satellites/59255 · /tle

For live sub-satellite position, see the globe view (requires WebGL).

§ Visibility from observer

Set your observer location to see the next 7 days of passes ≥ 10°. The values pass through the URL so the page stays shareable.

No JS? Fill the form by hand. The geolocation button needs JavaScript.